Location: Rancho Del Sol Observatory
(38.7214°N, 120.6350°W)
Time: 08:43:53
(UTC-08:00)

Vanguard 1 Rocket - Visible Passes

Search period start: 21 January 2020 00:00
Search period end: 31 January 2020 00:00
Orbit: 650 x 4226 km, 34.3° (Epoch: 20 January)

Date Brightness Start Highest point End Pass type
(mag) Time Alt. Az. Time Alt. Az. Time Alt. Az.
21 Jan 12.0 18:20:42 10° W 18:38:13 26° SW 18:56:31 10° S visible
22 Jan 12.0 17:05:39 10° W 17:24:21 37° SW 17:46:21 10° SSE visible
22 Jan 12.3 19:51:57 10° WSW 19:53:23 10° SW 19:54:50 10° SW visible
23 Jan 12.2 18:25:21 10° W 18:40:07 20° SW 18:55:47 10° S visible
24 Jan 12.1 17:09:16 10° W 17:26:23 31° SW 17:46:46 10° S visible
25 Jan 12.3 18:31:40 10° WSW 18:42:08 14° SW 18:53:13 10° SSW visible
26 Jan 12.2 17:13:24 10° W 17:28:31 24° SW 17:46:28 10° S visible
28 Jan 12.4 17:18:31 10° WSW 17:30:46 18° SW 17:45:01 10° S visible
29 Jan 10.1 06:26:36 10° SSE 06:28:46 12° SE 06:31:16 10° ESE visible
30 Jan 12.6 17:26:11 10° WSW 17:33:10 12° SW 17:40:49 10° SSW visible
